GW0870 Weather Reports


time (UTC)temp
F
wind
direction
speed
knots
gust
knots
rain 1hr
in
rain 24hr
in
rain mn
in
humidity
%
barometer
mb
20260504210041 80 186 1.7 7.0 0.00 0.00 0.00 26 1013.3
20260504204539 80 297 1.7 6.1 0.00 0.00 0.00 29 1013.5
20260504203102 79 153 2.6 7.8 0.00 0.00 0.00 27 1013.8
20260504201543 78 248 2.6 7.0 0.00 0.00 0.00 28 1014.0
20260504200046 79 121 0.9 4.3 0.00 0.00 0.00 27 1014.1
20260504194556 78 238 5.2 10.4 0.00 0.00 0.00 25 1014.3
20260504193051 80 205 0.9 3.5 0.00 0.00 0.00 26 1014.3
20260504191547 79 209 1.7 7.0 0.00 0.00 0.00 27 1014.5
20260504190058 79 272 0.9 4.3 0.00 0.00 0.00 26 1014.7
20260504184558 79 236 0.9 6.1 0.00 0.00 0.00 25 1015.0
20260504183042 79 231 0.9 4.3 0.00 0.00 0.00 26 1015.2
20260504181542 78 228 2.6 7.0 0.00 0.00 0.00 27 1015.4
20260504180053 76 153 0.9 7.0 0.00 0.00 0.00 28 1015.4
20260504174551 76 76 0.0 5.2 0.00 0.00 0.00 28 1015.3
20260504173049 76 260 0.9 7.0 0.00 0.00 0.00 28 1015.6
20260504171551 75 173 2.6 6.1 0.00 0.00 0.00 30 1015.8
20260504081541 41 0 0.0 0.0 0.00 0.00 0.00 92 1016.5
20260504044556 44 0 0.0 0.0 0.00 0.00 0.00 85 1016.8
20260504043044 44 0 0.0 0.0 0.00 0.00 0.00 85 1016.8
20260504041540 45 0 0.0 0.0 0.00 0.00 0.00 83 1017.0
20260504040050 45 0 0.0 0.0 0.00 0.00 0.00 82 1017.1
20260504034552 45 0 0.0 0.0 0.00 0.00 0.00 82 1017.1
20260504033054 45 0 0.0 0.0 0.00 0.00 0.00 80 1017.1
20260504031543 46 0 0.0 0.0 0.00 0.00 0.00 79 1017.2
20260504030041 46 0 0.0 0.0 0.00 0.00 0.00 79 1017.1
20260504024546 47 0 0.0 0.0 0.00 0.00 0.00 77 1017.0
20260504023048 48 0 0.0 0.0 0.00 0.00 0.00 75 1016.9
20260504021538 48 0 0.0 0.0 0.00 0.00 0.00 73 1016.6
20260504020043 49 0 0.0 0.0 0.00 0.00 0.00 70 1016.4
20260504014542 50 0 0.0 0.0 0.00 0.00 0.00 69 1016.4
20260504013048 51 0 0.0 0.0 0.00 0.00 0.00 68 1016.2
20260504011540 52 0 0.0 0.0 0.00 0.00 0.00 65 1016.0
20260504010051 53 0 0.0 0.0 0.00 0.00 0.00 61 1015.8
20260504004544 55 0 0.0 0.0 0.00 0.00 0.00 59 1015.7
20260504003043 57 0 0.0 0.0 0.00 0.00 0.00 54 1015.7
20260504001602 59 0 0.0 0.0 0.00 0.00 0.00 51 1015.6
20260504000044 62 0 0.0 0.0 0.00 0.00 0.00 47 1015.4
20260503234541 64 0 0.0 0.0 0.00 0.00 0.00 41 1015.4
20260503233038 65 0 0.0 0.9 0.00 0.00 0.00 36 1015.4
20260503231544 66 162 0.0 2.6 0.00 0.00 0.00 34 1015.5
20260503230044 68 211 0.9 2.6 0.00 0.00 0.00 31 1015.4
20260503224542 68 154 0.9 4.3 0.00 0.00 0.00 30 1015.5
20260503223049 69 216 0.0 6.1 0.00 0.00 0.00 30 1015.6
20260503221546 70 0 0.9 3.5 0.00 0.00 0.00 31 1015.7
20260503220105 69 298 0.9 6.1 0.00 0.00 0.00 30 1015.9
20260503214546 71 302 0.0 6.1 0.00 0.00 0.00 29 1015.9
20260503213049 71 313 0.0 3.5 0.00 0.00 0.00 31 1016.0
20260503211558 70 244 0.9 5.2 0.00 0.00 0.00 30 1016.1